DateTimeUTC,F1_A11,F1_S11,BsB_S11,BsG_S11,BsR_S11,BbsB_S11,BbsG_S11,BbsR_S11,BaB_A11,BaG_A11,BaR_A11,Tu_S11,T_S11,Uu_S11,U_S11,P_S11,T1_A11
2021-11-26T07:00:00Z,00000200,21000000,,,,,,,-000.27,-000.12,-000.03,18.6,25.6,,00.0,0645.7,30.9
2021-11-26T07:01:00Z,00000200,21000000,,,,,,,0000.25,0000.06,0000.15,18.6,25.6,,00.0,0645.7,30.9
2021-11-26T07:02:00Z,00000200,21000000,,,,,,,-000.12,-000.16,0000.07,18.6,25.6,,00.0,0645.7,30.9
2021-11-26T07:03:00Z,00000200,61000000,,,,,,,-000.18,0000.03,-000.39,18.7,25.6,,00.0,0645.7,30.9
2021-11-26T07:04:00Z,00000200,41000000,0001.21,0000.08,0000.01,0000.03,0000.04,-000.16,-000.07,0000.30,0000.17,18.9,25.5,,00.0,0646.5,30.9
2021-11-26T07:05:00Z,00000200,01000000,0001.01,0000.15,-000.00,-000.28,0000.28,0000.20,0000.41,-000.12,0000.13,18.9,25.5,,00.0,0646.5,30.8
2021-11-26T07:06:00Z,00000200,01000000,0000.43,-000.41,0000.01,0000.57,0000.10,0000.41,0000.08,-000.28,-000.16,18.8,25.4,,00.0,0646.5,30.8
2021-11-26T07:07:00Z,00000200,01000000,0000.69,0000.35,0000.17,-000.20,0000.02,-000.10,-000.03,0000.35,0000.39,18.7,25.4,,00.0,0646.5,30.8
2021-11-26T07:08:00Z,00000200,01000000,0000.29,0000.49,-000.05,0000.33,0000.31,0000.12,-000.01,-000.03,-000.14,18.6,25.3,,00.0,0646.5,30.7
2021-11-26T07:09:00Z,00000200,01000000,0000.42,0000.34,0000.30,-000.35,0000.13,0000.36,0000.28,0000.22,0000.01,18.5,25.2,,00.0,0646.4,30.7
2021-11-26T07:10:00Z,00000200,01000000,0001.11,0000.18,-000.07,-000.14,-000.08,0000.15,-000.26,0000.25,0000.02,18.4,25.2,,00.0,0646.4,30.7
2021-11-26T07:11:00Z,00000200,01000000,0000.78,0000.35,-000.02,-001.04,0000.32,0000.27,0000.48,-000.04,0000.52,18.4,25.1,,00.0,0646.4,30.7
2021-11-26T07:12:00Z,00000200,01000000,0000.38,0000.36,-000.05,-000.36,0000.50,0000.34,0000.22,0000.20,-000.29,18.4,25.1,,00.0,0646.4,30.7
2021-11-26T07:13:00Z,00000200,01000000,0001.04,0000.39,0000.31,-000.13,0000.30,0000.18,0000.14,0000.25,0000.38,18.4,25.1,,00.0,0646.4,30.8
2021-11-26T07:14:00Z,00000200,01000000,0000.09,-000.07,0000.21,0000.10,0000.21,0000.23,0000.29,0000.29,0000.17,18.4,25.1,,00.0,0646.3,30.8
2021-11-26T07:15:00Z,00000200,01000000,-000.11,0000.18,-000.22,0000.02,0000.14,0000.29,0000.18,0000.30,0000.04,18.5,25.1,,00.0,0646.3,30.8
2021-11-26T07:16:00Z,00000200,01000000,0000.97,0000.03,-000.02,0000.09,0000.24,0000.13,0000.34,0000.63,0000.48,18.5,25.1,,00.0,0646.3,30.8
2021-11-26T07:17:00Z,00000200,01000000,0000.62,0000.35,-000.10,0000.50,0000.14,0000.14,-000.08,-000.14,0000.06,18.6,25.1,,00.0,0646.3,30.8
2021-11-26T07:18:00Z,00000200,01000000,0000.23,0000.47,0000.28,0000.30,0000.36,0000.24,-000.01,-000.02,0000.18,18.6,25.2,,00.0,0646.3,30.8
2021-11-26T07:19:00Z,00000200,01000000,0000.44,0000.08,0000.16,-000.20,-000.01,0000.02,0000.21,0000.06,-000.02,18.7,25.2,,00.0,0646.3,30.8
2021-11-26T07:20:00Z,00000200,01000000,0000.71,0000.36,0000.03,-000.15,-000.01,0000.18,0000.17,0000.13,0000.09,18.7,25.2,,00.0,0646.3,30.8
2021-11-26T07:21:00Z,00000200,01000000,0000.56,0000.15,0000.28,-000.61,0000.16,0000.17,-000.02,-000.45,-000.04,18.7,25.2,,00.0,0646.3,30.8
2021-11-26T07:22:00Z,00000200,01000000,0001.04,0000.43,-000.00,-000.22,-000.15,0000.12,0000.26,0000.48,0000.09,18.8,25.2,,00.0,0646.3,30.8
2021-11-26T07:23:00Z,00000200,01000000,0000.24,0000.41,0000.11,-000.30,0000.18,0000.37,-000.27,-000.11,-000.21,18.8,25.2,,00.0,0646.4,30.8
2021-11-26T07:24:00Z,00000200,01000000,-000.40,-000.15,0000.28,-000.55,-000.32,0000.45,0000.05,0000.21,0000.10,18.8,25.3,,00.0,0646.4,30.8
2021-11-26T07:25:00Z,00000200,01000000,0000.77,0000.20,0000.30,-001.19,0000.10,0000.31,0000.18,0000.02,0000.23,18.7,25.2,,00.0,0646.4,30.8
2021-11-26T07:26:00Z,00000200,01000000,0001.17,-000.10,0000.17,0000.37,0000.11,0000.09,0000.38,-000.12,-000.15,18.7,25.2,,00.0,0646.4,30.8
2021-11-26T07:27:00Z,00000200,01000000,0000.93,0000.37,-000.04,0000.17,-000.29,0000.09,0000.32,0000.40,0000.31,18.7,25.2,,00.0,0646.3,30.8
2021-11-26T07:28:00Z,00000200,01000000,0000.03,0000.17,-000.10,-000.08,0000.17,0000.48,-000.37,0000.09,-000.02,18.7,25.2,,00.0,0646.3,30.8
2021-11-26T07:29:00Z,00000200,01000000,0000.41,-000.08,0000.19,-000.07,0000.33,0000.07,0000.20,-000.04,0000.26,18.8,25.2,,00.0,0646.3,30.8
2021-11-26T07:30:00Z,00000200,01000000,0000.70,0000.32,0000.58,-000.37,0000.11,0000.53,0000.51,0000.37,0000.14,18.8,25.2,,00.0,0646.4,30.8
2021-11-26T07:31:00Z,00000200,01000000,0000.33,0000.22,0000.33,-000.14,0000.17,0000.26,-000.09,-000.10,-000.02,18.8,25.2,,00.0,0646.4,30.8
2021-11-26T07:32:00Z,00000200,01000000,0000.54,0000.34,0000.13,0000.43,0000.62,0000.33,0000.26,0000.20,0000.32,18.9,25.3,,00.0,0646.4,30.8
2021-11-26T07:33:00Z,00000200,01000000,0000.61,0000.30,0000.19,-000.59,0000.25,0000.45,-000.00,-000.02,-000.06,18.9,25.3,,00.0,0646.4,30.9
2021-11-26T07:34:00Z,00000200,01000000,0000.79,0000.23,0000.13,-000.43,-000.11,-000.01,0000.07,0000.07,-000.04,19.0,25.3,,00.0,0646.3,30.9
2021-11-26T07:35:00Z,00000200,01000000,0000.37,0000.05,0000.01,-000.22,-000.02,-000.15,-000.13,0000.21,0000.24,19.0,25.4,,00.0,0646.3,30.9
2021-11-26T07:36:00Z,00000200,01000000,-000.23,0000.30,0000.17,-000.14,0000.03,0000.06,0000.27,-000.18,-000.17,19.0,25.4,,00.0,0646.3,30.9
2021-11-26T07:37:00Z,00000200,01000000,-000.27,0000.18,0000.38,-000.18,0000.34,0000.21,0000.16,0000.23,0000.20,19.1,25.4,,00.0,0646.2,30.9
2021-11-26T07:38:00Z,00000200,01000000,0000.33,0000.24,0000.19,0000.16,0000.36,0000.07,-000.02,0000.21,0000.36,19.0,25.4,,00.0,0646.2,30.9
2021-11-26T07:39:00Z,00000200,01000000,0001.04,0000.31,0000.07,0000.29,0000.28,0000.49,0000.40,0000.50,-000.03,19.0,25.4,,00.0,0646.1,30.8
2021-11-26T07:40:00Z,00000200,01000000,0000.40,0000.29,-000.20,0000.03,-000.16,0000.18,0000.16,-000.09,0000.26,18.9,25.3,,00.0,0646.1,30.8
2021-11-26T07:41:00Z,00000200,01000000,0000.67,0000.25,0000.15,0000.31,0000.23,-000.07,0000.15,0000.27,0000.22,18.8,25.3,,00.0,0646.0,30.8
2021-11-26T07:42:00Z,00000200,01000000,0000.72,0000.10,0000.26,-000.79,-000.29,0000.62,0000.33,-000.04,-000.01,18.8,25.3,,00.0,0646.0,30.8
2021-11-26T07:43:00Z,00000200,01000000,-000.07,0000.53,-000.05,0000.10,0000.05,0000.05,-000.13,0000.18,0000.15,18.8,25.3,,00.0,0646.0,30.8
2021-11-26T07:44:00Z,00000200,01000000,-000.14,0000.43,0000.15,0000.27,0000.00,0000.26,0000.53,0000.52,0000.13,18.8,25.3,,00.0,0646.0,30.8
2021-11-26T07:45:00Z,00000200,01000000,0000.63,0000.04,0000.57,-000.10,0000.27,0000.37,0000.08,-000.14,0000.25,18.9,25.3,,00.0,0645.9,30.8
2021-11-26T07:46:00Z,00000200,01000000,0000.08,0000.19,-000.41,-000.10,0000.13,0000.02,0000.16,0000.42,-000.03,18.9,25.3,,00.0,0645.9,30.8
2021-11-26T07:47:00Z,00000200,01000000,0000.50,0000.15,-000.04,-000.31,-000.13,0000.21,-000.02,0000.04,0000.07,19.0,25.4,,00.0,0646.0,30.8
2021-11-26T07:48:00Z,00000200,01000000,-000.14,0000.24,0000.27,-000.36,0000.06,0000.16,0000.15,-000.13,-000.01,19.0,25.4,,00.0,0645.9,30.8
2021-11-26T07:49:00Z,00000200,01000000,-000.27,0000.08,0000.56,-000.40,0000.18,0000.18,-000.16,0000.24,0000.13,19.0,25.4,,00.0,0646.0,30.8
2021-11-26T07:50:00Z,00000200,01000000,0000.51,0000.44,0000.29,0000.03,0000.27,0000.35,0000.19,-000.12,0000.04,19.1,25.4,,00.0,0646.0,30.9
2021-11-26T07:51:00Z,00000200,01000000,0000.85,0000.19,-000.07,0000.40,0000.15,0000.15,0000.08,-000.05,0000.10,19.1,25.4,,00.0,0646.0,30.9
2021-11-26T07:52:00Z,00000200,01000000,0000.71,0000.13,-000.11,-000.21,-000.05,0000.12,-000.13,-000.06,-000.21,19.1,25.5,,00.0,0645.9,30.9
2021-11-26T07:53:00Z,00000200,01000000,0000.14,0000.24,0000.14,-000.02,-000.03,-000.07,-000.33,0000.00,-000.02,19.1,25.5,,00.0,0645.9,30.9
2021-11-26T07:54:00Z,00000200,01000000,0000.44,0000.25,0000.29,-000.80,0000.04,-000.15,0000.60,0000.06,-000.01,19.1,25.5,,00.0,0645.9,30.9
2021-11-26T07:55:00Z,00000200,01000000,0000.42,0000.47,0000.34,0000.11,-000.01,0000.21,-000.31,0000.03,-000.13,19.0,25.4,,00.0,0645.9,30.8
2021-11-26T07:56:00Z,00000200,01000000,0000.82,0000.35,0000.18,0000.37,0000.40,0000.33,0000.58,0000.36,0000.40,18.9,25.4,,00.0,0645.9,30.8
2021-11-26T07:57:00Z,00000200,41000000,,,,,,,-000.83,-000.86,-000.18,19.0,25.4,,00.0,0645.9,30.8
2021-11-26T07:58:00Z,00000200,61000000,,,,,,,0000.47,0000.28,-000.11,18.6,25.5,,00.0,0645.0,30.8
2021-11-26T07:59:00Z,00000200,21000000,,,,,,,-000.09,0000.39,0000.11,18.6,25.6,,00.0,0645.0,30.8
